Location: Avully
(45.9633°N, 6.0228°E)
Time: 13:06:26
(UTC+00:00)

Nimbus 7 Rocket - Pass Details

Date: 23 May 2024
Orbit: 922 x 964 km, 99.4° (Epoch: 16 June)

Event Time Altitude Azimuth Distance (km) Brightness Sun altitude
Rises 00:26:07 0° 15° (NNE) 3,621 9.0 -22.3°
Reaches altitude 10° 00:28:33 10° 15° (NNE) 2,678 8.0 -22.2°
Maximum altitude 00:34:35 89° 107° (ESE) 961 4.4 -21.9°
Enters shadow 00:36:44 43° 196° (SSW) 1,317 4.7 -21.8°
